Regional Weather Roundup
Issued by NWS Kansas City/Pleasant Hill, MO

Home | Current Version | Previous Version | Text Only | Print | Product List | Glossary On
Versions: 1 2 3 4 5 6 7 8 9 10 11 12 13 14 15 16 17 18 19 20 21 22 23 24 25 26 27 28 29 30 31 32 33 34 35 36 37 38 39 40 41 42 43 44 45 46 47 48 49 50
000
ASUS43 KEAX 031611
RWREAX

WEATHER ROUNDUP FOR EASTERN KANSAS AND NORTHWEST MISSOURI
NATIONAL WEATHER SERVICE KANSAS CITY/PLEASANT HILL MO
1100 AM CDT FRI JUL 03 2015

KSZ040-057-103>105-MOZ028-029-037-043-031700-
...KANSAS CITY METROPOLITAN AREA...

CITY           SKY/WX    TMP DP  RH WIND       PRES   REMARKS
K.C. INTL      MOSUNNY   74  61  63 N9        29.97S
K.C. DOWNTOWN  MOSUNNY   75  63  66 E9        29.95S
LEES SUMMIT    CLOUDY    71  63  75 E3        29.97S
OLATHE - IXD   LGT RAIN  69  65  86 NE5       29.98R
OLATHE - OJC   CLOUDY    71  65  81 NE7       29.96S
LAWRENCE       PTSUNNY   74  64  71 E7        29.97R

$$

MOZ001>008-011>017-020>025-030>033-038>040-044>046-053-054-031700-
...NORTHERN AND CENTRAL MISSOURI...

CITY           SKY/WX    TMP DP  RH WIND       PRES   REMARKS
ST. JOSEPH       N/A     73  58  59 NE7       29.99R
MOSBY          SUNNY     72  59  64 NE6       29.97S
HARRISONVILLE  CLOUDY    73  66  78 NE5       29.99R
WARRENSBURG    CLOUDY    72  63  73 NE6       29.95S
WHITEMAN AFB   PTSUNNY   70  64  83 N6        29.95S
CLINTON        CLOUDY    73  70  88 NE6       29.95S
SEDALIA        CLOUDY    73  65  75 N6        29.97R
WARSAW         PTSUNNY   73  68  83 CALM      29.96R
CHILLICOTHE      N/A     75  60  59 NE7       29.98F
KIRKSVILLE     MOSUNNY   72  59  63 NE8       29.99S

$$

MOZ041-047>049-056>058-063>065-088>090-097-031700-
...EASTERN AND SOUTHERN MISSOURI...

CITY           SKY/WX    TMP DP  RH WIND       PRES   REMARKS
ST. LOUIS INTL MOSUNNY   76  65  68 N8        29.93S
SPIRIT OF STL  MOSUNNY   75  65  70 NE5       29.92R
COLUMBIA       SUNNY     75  59  57 N10       29.95S
JEFFERSON CITY MOSUNNY   75  62  64 N8        29.94R
MEXICO         SUNNY     75  66  73 NE8       29.95S
ROLLA          CLOUDY    72  64  76 NE3       29.94R
LEBANON        PTSUNNY   73  68  83 MISG      29.95S
OSAGE BEACH    CLOUDY    72  64  78 CALM      29.95R
SPRINGFIELD    LGT RAIN  72  68  87 W8        29.93S
BRANSON        CLOUDY    75  68  78 CALM      29.95F
JOPLIN         PTSUNNY   77  70  79 CALM      29.93F
WEST PLAINS    CLOUDY    72  68  87 E5        29.96R FOG

$$

IAZ060-094-KSZ022-034>040-054-083-096-NEZ052-066-093-031700-
...KANSAS...SOUTHEAST NEBRASKA AND IOWA...

CITY           SKY/WX    TMP DP  RH WIND       PRES   REMARKS
TOPEKA         PTSUNNY   72  66  81 NE8       29.97S
MANHATTAN      CLOUDY    70  65  84 NE7       29.99S
EMPORIA        CLOUDY    73  66  78 N12       29.96R
CHANUTE        MOSUNNY   78  70  76 CALM      29.93F
WICHITA        PTSUNNY   75  65  70 N15       29.98R
OMAHA          MOSUNNY   71  58  63 NW3       30.03R
LINCOLN        SUNNY     74  61  63 N7        30.03S
FALLS CITY     SUNNY     72  60  66 NE8       30.00R
LAMONI         SUNNY     71  59  65 E6        30.01R
DES MOINES     MOSUNNY   73  55  53 NE9       30.00S

$$




USA.gov is the U.S. government's official web portal to all federal, state and local government web resources and services.